Location: Unspecified
(33.6682°S, 0.0000°E)
Time: 10:01:51
(UTC+00:00)

Vanguard 2 Rocket - Pass Details

Date: 20 June 2019
Orbit: 554 x 3327 km, 32.9° (Epoch: 15 October)

Event Time Altitude Azimuth Distance (km) Brightness Sun altitude
Rises 13:23:38 0° 263° (W) 4,523 10.6 29.6°
Reaches altitude 10° 13:27:20 10° 264° (W) 3,118 9.9 29.4°
Maximum altitude 13:34:19 69° 346° (NNW) 854 7.7 28.8°
Drops below altitude 10° 13:38:46 10° 69° (ENE) 2,017 8.7 28.4°
Sets 13:40:43 0° 72° (ENE) 2,814 9.4 28.2°
